Weather History for Presque Isle, ME

Change the Weather History Date:

Sunday, January 6, 2013

  Actual Average Record
Temperature  
Mean Temperature 2 °F -  
Max Temperature 15 °F 19 °F 47 °F (1946)
Min Temperature -11 °F 2 °F -23 °F (1957)
Degree Days  
Heating Degree Days 63    
Moisture  
Dew Point -4 °F    
Average Humidity 66    
Maximum Humidity 100    
Minimum Humidity 8    
Precipitation  
Precipitation 0.00 in - - ()
Sea Level Pressure  
Sea Level Pressure 29.95 in    
Wind  
Wind Speed 3 mph (NNE)    
Max Wind Speed 12 mph    
Max Gust Speed -    
Visibility 8 miles    
Events      
Averages and records for this station are not official NWS values.
T = Trace of Precipitation, MM = Missing Value Source: NWS Daily Summary

Daily Weather History Graph

Daily Weather History Graph

Search for Another Location

Airport:

Trip Planner

Search our weather history database for the weather conditions in past years. The results will help you decide how hot, cold, wet, or windy it might be!

Date:

Astronomy

Jan. 06, 2013 Rise Set
Actual Time 7:16 AM EST 4:00 PM EST
Civil Twilight 6:41 AM EST 4:35 PM EST
Nautical Twilight 6:03 AM EST 5:13 PM EST
Astronomical Twilight 5:26 AM EST 5:49 PM EST
Moon 1:17 AM EST (1/6) 11:32 AM EST (1/6)
Length of Visible Light 9h 53m
Length of Day
8h 44m
Waning Crescent, 33% of the Moon is Illuminated
Jan 6
Waning Crescent
Jan 11
New
Jan 18
First Quarter
Jan 26
Full
Feb 3
Last Quarter

Hourly Weather History & Observations

Time (EST) Temp. Windchill Dew Point Humidity Pressure Visibility Wind Dir Wind Speed Gust Speed Precip Events Conditions
12:15 AM -11.2 °F - - N/A% - 10.0 mi Calm Calm - N/A   Clear
12:35 AM -9.4 °F - - N/A% 30.09 in 10.0 mi Calm Calm - N/A   Clear
12:55 AM -11.2 °F - - N/A% - 10.0 mi Calm Calm - N/A   Partly Cloudy
1:15 AM -9.4 °F - -25.6 °F 45% 30.08 in 10.0 mi Calm Calm - N/A   Clear
1:35 AM -7.6 °F - -20.2 °F 54% 30.08 in 10.0 mi Calm Calm - N/A   Clear
1:55 AM -9.4 °F - -23.8 °F 49% 30.08 in 10.0 mi Calm Calm - N/A   Clear
2:15 AM -7.6 °F - -14.8 °F 71% 30.06 in 10.0 mi Calm Calm - N/A   Scattered Clouds
2:35 AM -5.8 °F - -16.6 °F 60% 30.05 in 10.0 mi Calm Calm - N/A   Scattered Clouds
2:55 AM -5.8 °F - -13.0 °F 71% 30.05 in 10.0 mi Calm Calm - N/A   Scattered Clouds
3:35 AM -7.6 °F - -25.6 °F 41% 30.05 in 10.0 mi Calm Calm - N/A   Clear
3:55 AM -5.8 °F - -11.2 °F 77% 30.03 in 10.0 mi Calm Calm - N/A   Clear
4:15 AM -2.2 °F - -50.8 °F 8% 30.02 in 10.0 mi Calm Calm - N/A   Clear
4:35 AM -0.4 °F - - N/A% 30.01 in 10.0 mi Calm Calm - N/A   Mostly Cloudy
5:15 AM -2.2 °F - -25.6 °F 32% 30.00 in 10.0 mi Calm Calm - N/A   Overcast
5:35 AM 1.4 °F - -11.2 °F 56% 30.00 in 10.0 mi Calm Calm - N/A   Overcast
5:55 AM 1.4 °F - -11.2 °F 56% 29.99 in 10.0 mi Calm Calm - N/A   Overcast
6:15 AM 1.4 °F - -31.0 °F 21% 29.99 in 10.0 mi Calm Calm - N/A   Overcast
6:35 AM 3.2 °F -4.2 °F -27.4 °F 23% 29.98 in 10.0 mi South 3.5 mph - N/A   Overcast
6:55 AM 3.2 °F -6.2 °F -16.6 °F 39% 29.98 in 10.0 mi SSE 4.6 mph - N/A   Overcast
7:15 AM 3.2 °F -6.2 °F -9.4 °F 56% 29.99 in 10.0 mi SSE 4.6 mph - N/A   Overcast
7:35 AM 3.2 °F -6.2 °F -5.8 °F 66% 29.98 in 10.0 mi SSE 4.6 mph - N/A   Overcast
7:55 AM 3.2 °F - 3.2 °F 100% 29.98 in 8.0 mi Calm Calm - N/A   Overcast
8:15 AM 3.2 °F - -25.6 °F 25% 29.97 in 10.0 mi Calm Calm - N/A   Overcast
8:35 AM 5.0 °F -5.6 °F -22.0 °F 28% 29.96 in 10.0 mi SSE 5.8 mph - N/A   Overcast
8:55 AM 5.0 °F -4.1 °F -13.0 °F 43% 29.96 in 10.0 mi SE 4.6 mph - N/A   Overcast
9:15 AM 5.0 °F - -7.6 °F 56% 29.96 in 10.0 mi Calm Calm - N/A   Mostly Cloudy
9:35 AM 6.8 °F - -5.8 °F 56% 29.96 in 10.0 mi Calm Calm - N/A   Overcast
9:55 AM 6.8 °F - -5.8 °F 56% 29.97 in 3.0 mi Calm Calm - N/A   Overcast
10:15 AM 8.6 °F - -25.6 °F 20% 29.96 in 4.0 mi Calm Calm - N/A   Overcast
10:35 AM 8.6 °F - -0.4 °F 67% 29.95 in 2.5 mi Calm Calm - N/A   Overcast
10:55 AM 8.6 °F - -0.4 °F 67% 29.94 in 3.0 mi Calm Calm - N/A   Overcast
11:15 AM 10.4 °F 4.0 °F 3.2 °F 73% 29.92 in 3.0 mi East 3.5 mph - N/A   Mostly Cloudy
11:35 AM 10.4 °F - 1.4 °F 67% 29.91 in 9.0 mi Calm Calm - N/A   Scattered Clouds
11:55 AM 12.2 °F - 1.4 °F 62% 29.91 in 10.0 mi Calm Calm - N/A   Clear
12:15 PM 12.2 °F 6.1 °F 5.0 °F 73% - 5.0 mi NE 3.5 mph - N/A   Mostly Cloudy
12:35 PM 12.2 °F 4.3 °F 5.0 °F 73% 29.89 in 4.0 mi NE 4.6 mph - N/A   Overcast
12:55 PM 12.2 °F 4.3 °F 6.8 °F 79% 29.87 in 4.0 mi NE 4.6 mph - N/A   Overcast
1:35 PM 14.0 °F 6.5 °F 6.8 °F 73% 29.87 in 9.0 mi ENE 4.6 mph - N/A   Mostly Cloudy
1:55 PM 15.8 °F 10.2 °F 8.6 °F 73% 29.87 in 10.0 mi NE 3.5 mph - N/A   Clear
2:15 PM 15.8 °F 8.6 °F 6.8 °F 68% 29.87 in 10.0 mi NNE 4.6 mph - N/A   Scattered Clouds
2:35 PM 14.0 °F 6.5 °F 6.8 °F 73% 29.87 in 10.0 mi NE 4.6 mph - N/A   Partly Cloudy
3:15 PM 14.0 °F 5.1 °F 6.8 °F 73% 29.87 in 10.0 mi NNE 5.8 mph - N/A   Mostly Cloudy
3:35 PM 14.0 °F 3.9 °F 8.6 °F 79% 29.86 in 10.0 mi NNE 6.9 mph - N/A   Overcast
3:55 PM 14.0 °F 5.1 °F 8.6 °F 79% 29.86 in 4.0 mi NNE 5.8 mph - N/A   Overcast
4:15 PM 14.0 °F 6.5 °F 8.6 °F 79% 29.87 in 5.0 mi North 4.6 mph - N/A   Overcast
4:35 PM 14.0 °F 5.1 °F 8.6 °F 79% 29.87 in 7.0 mi North 5.8 mph - N/A   Overcast
4:55 PM 12.2 °F 4.3 °F 10.4 °F 92% 29.88 in 4.0 mi North 4.6 mph - N/A   Overcast
5:15 PM 12.2 °F 2.9 °F 8.6 °F 85% 29.88 in 6.0 mi North 5.8 mph - N/A   Overcast
5:35 PM 12.2 °F 0.7 °F 10.4 °F 92% 29.89 in 5.0 mi North 8.1 mph - N/A   Overcast
5:55 PM 12.2 °F -0.2 °F 8.6 °F 85% 29.89 in 5.0 mi North 9.2 mph - N/A   Overcast
6:15 PM 12.2 °F 1.7 °F 8.6 °F 85% 29.90 in 4.0 mi North 6.9 mph - N/A   Mostly Cloudy
6:35 PM 12.2 °F 1.7 °F 8.6 °F 85% 29.90 in 7.0 mi North 6.9 mph - N/A   Overcast
6:55 PM 12.2 °F 0.7 °F 8.6 °F 85% 29.90 in 5.0 mi North 8.1 mph - N/A   Overcast
7:15 PM 12.2 °F 0.7 °F 8.6 °F 85% 29.92 in 7.0 mi North 8.1 mph - N/A   Overcast
7:35 PM 12.2 °F 0.7 °F 6.8 °F 79% 29.92 in 8.0 mi North 8.1 mph - N/A   Overcast
7:55 PM 12.2 °F 0.7 °F 8.6 °F 85% 29.93 in 8.0 mi North 8.1 mph - N/A   Overcast
8:15 PM 12.2 °F -1.8 °F 6.8 °F 79% 29.93 in 10.0 mi North 11.5 mph - N/A   Overcast
8:35 PM 12.2 °F -1.0 °F 6.8 °F 79% 29.93 in 6.0 mi North 10.4 mph - N/A   Overcast
8:55 PM 10.4 °F -3.3 °F 6.8 °F 85% 29.93 in 8.0 mi North 10.4 mph - N/A   Overcast
9:15 PM 10.4 °F -2.4 °F 6.8 °F 85% 29.93 in 10.0 mi North 9.2 mph - N/A   Overcast
9:35 PM 10.4 °F -3.3 °F 3.2 °F 73% 29.94 in 10.0 mi North 10.4 mph - N/A   Overcast
9:55 PM 8.6 °F -5.5 °F 3.2 °F 79% 29.95 in 10.0 mi North 10.4 mph - N/A   Mostly Cloudy
10:15 PM 10.4 °F -3.3 °F 3.2 °F 73% 29.95 in 10.0 mi North 10.4 mph - N/A   Mostly Cloudy
10:35 PM 8.6 °F -6.3 °F 1.4 °F 73% 29.96 in 10.0 mi North 11.5 mph - N/A   Partly Cloudy
10:55 PM 8.6 °F -5.5 °F -0.4 °F 67% 29.97 in 10.0 mi North 10.4 mph - N/A   Clear
11:15 PM 6.8 °F -6.9 °F -0.4 °F 72% 29.97 in 10.0 mi North 9.2 mph - N/A   Clear
11:35 PM 6.8 °F -4.8 °F -2.2 °F 67% 29.98 in 10.0 mi North 6.9 mph - N/A   Clear
11:55 PM 6.8 °F -4.8 °F -2.2 °F 67% 29.98 in 10.0 mi North 6.9 mph - N/A   Partly Cloudy